Lexington Weather

Lexington, Massachusetts, USA

56°F
6/9/2023 7:51pm 
  • Lexington Conditions: Mostly cloudy
  • Temperature: 56.1°F / 13.4°CWarmer 0.2°F than last hour.
  • Dew Point: 54.5°FIncreased 0.2°Fsince last hour.
  • Relative Humidity: 94
  • Wind: Calm, 10-min avg: Calm, gust: None
  • Barometer: 29.67 in Steady
  • Visibility: 10 miles
  • Rain Today: 0.22 in
  •   

Regional Weather Roundup
for Boston, MA

        
000
ASUS41 KBOX 090310
RWRBOX

REGIONAL WEATHER ROUNDUP
NATIONAL WEATHER SERVICE BOSTON/NORTON MA
1100 PM EDT THU JUN 08 2023

NOTE:  "FAIR" INDICATES FEW OR NO CLOUDS BELOW 12,000 FEET WITH NO 
SIGNIFICANT WEATHER AND/OR OBSTRUCTIONS TO VISIBILITY.

MAZALL-090400-
EASTERN MASSACHUSETTS
  
CITY           SKY/WX    TMP DP  RH WIND       PRES   REMARKS
BOSTON         MOCLDY    58  52  80 CALM      29.72S                  
BEVERLY        CLOUDY    52  51  97 CALM      29.71F                  
LAWRENCE       CLOUDY    55  51  86 CALM      29.74S                  
BEDFORD        PTCLDY    52  52 100 CALM      29.71S                  
NORWOOD        CLOUDY    55  50  83 CALM      29.73R                  
MARSHFIELD     MOCLDY    54  50  87 CALM      29.72S                  
PLYMOUTH       PTCLDY    53  50  89 CALM      29.72S                  
TAUNTON        MOCLDY    50  47  89 CALM      29.72S FOG              
NEW BEDFORD    PTCLDY    50  50 100 CALM      29.72S FOG              
$$

MAZALL-090400-
CAPE COD AND THE ISLANDS
  
CITY           SKY/WX    TMP DP  RH WIND       PRES   REMARKS
FALMOUTH       MOCLDY    55  52  88 CALM      29.73S                  
HYANNIS        MOCLDY    58  53  84 W3        29.71F                  
CHATHAM        CLOUDY    63  54  72 CALM      29.73S                  
PROVINCETOWN   MOCLDY    57  55  93 S5        29.73F                  
NANTUCKET      PTCLDY    52  51  97 SW3       29.73F                  
MARTHAS VNYRD  CLOUDY    52  50  93 SW3       29.72F FOG              
$$
 
MAZALL-090400-
CENTRAL AND WESTERN MASSACHUSETTS
  
CITY           SKY/WX    TMP DP  RH WIND       PRES   REMARKS
WORCESTER      CLEAR     51  46  83 W5        29.73S                  
FITCHBURG      PTCLDY    53  48  83 CALM      29.73S                  
ORANGE         PTCLDY    49  47  93 CALM      29.74S                  
SPRINGFIELD    PTCLDY    48  48  99 CALM      29.71S                  
WESTFIELD      CLEAR     49  48  97 CALM      29.73S                  
NORTH ADAMS    MOCLDY    50  46  86 CALM      29.75S                  
PITTSFIELD     CLEAR     47  44  90 W5        29.74R                  
$$
 
RIZALL-090400-
RHODE ISLAND
  
CITY           SKY/WX    TMP DP  RH WIND       PRES   REMARKS
PROVIDENCE     MOCLDY    56  52  86 W3        29.73S                  
NEWPORT        CLEAR     56  52  86 CALM      29.73S FOG              
BLOCK ISLAND   CLEAR     56  53  90 SW7       29.74S                  
SMITHFIELD     CLEAR     49  48  97 CALM      29.73F                  
WESTERLY       CLEAR     56  50  80 CALM      29.73S HAZE             
$$
 
CTZALL-090400-
CONNECTICUT
  
CITY           SKY/WX    TMP DP  RH WIND       PRES   REMARKS
BRADLEY INTL   PTCLDY    54  50  86 CALM      29.73S                  
HARTFORD       CLEAR     56  51  84 CALM      29.73S                  
BRIDGEPORT     PTCLDY    59  51  75 NW3       29.73S                  
DANBURY        CLOUDY    55  49  80 CALM      29.75S                  
GROTON         CLEAR     58  48  69 CALM      29.72F                  
NEW HAVEN      MOCLDY    56  51  84 CALM      29.73S HAZE             
CHESTER        FAIR      52  52 100 CALM      29.74S                  
MERIDEN        CLOUDY    51  48  89 CALM      29.74R                  
WILLIMANTIC    MOCLDY    53  51  93 CALM      29.74R                  
OXFORD         MOCLDY    51  48  89 CALM      29.75S                  
$$

MEZ002-015-021-024-NHZ003-005-008-011-012-014-VTZ005-008-090400-
NORTHERN NEW ENGLAND
  
CITY           SKY/WX    TMP DP  RH WIND       PRES   REMARKS
PORTLAND ME    MOCLDY    53  52  96 E5        29.74S                  
BANGOR ME      CLOUDY    52  50  93 CALM      29.76R                  
CONCORD NH     CLEAR     50  49  96 CALM      29.72S                  
MANCHESTER NH  PTCLDY    52  49  89 CALM      29.71S                  
NASHUA NH      PTCLDY    52  52 100 W5        29.73S                  
PORTSMOUTH NH  MOCLDY    52  51  94 SE3       29.72R                  
JAFFREY NH     CLOUDY    50  48  93 CALM      29.73F                  
KEENE NH       MOCLDY    51  50  96 CALM      29.73S                  
BURLINGTON VT  MOCLDY    55  53  93 CALM      29.74S                  
MT. WASHINGTON NOT AVBL                                               
$$

NYZ052-076-090400-
EASTERN NEW YORK
  
CITY           SKY/WX    TMP DP  RH WIND       PRES   REMARKS
ALBANY         LGT RAIN  55  49  80 CALM      29.76R                  
NEW YORK CITY  MOCLDY    65  46  50 N7        29.73F                  
$$
 
ANZALL-090400-
MARINE OBSERVATIONS
  
STATION/POSITION TIME  TEMP    WIND        PRES    VSBY  WAVE
                       AIR SEA DIR/SP/G                  HT/PER
                 (UTC) (F)     (DEG/KT/KT) (MB)    (MI)  (FT/S)
BOSTON BUOY      0250   56 56  180/  6/  8 1006.5F         2/ 9
BUZZARDS BAY     0200   59     230/  8/  8 1007.2R
NANTUCKET SOUND  0250   60 59  220/  6/  8 1006.5F         1
MASS BAY-STELLWA 0104   56 56  160/  8/ 10 1005.2R  1 7/8  2/ 8
ISLE OF SHOALS   0200   56     150/ 11/ 11 1005.9R
S OF BLOCK IS    0256      57                N/A           3/ 8
$$

......................KEY.........................
  SKY/WX - SKY CONDITION/PRESENT WEATHER
  TMP    - TEMPERATURE IN FAHRENHEIT
  DWPT   - DEWPOINT IN FAHRENHEIT
  RH     - RELATIVE HUMIDITY IN PERCENT
  WIND   - DIRECTION AND SPEED IN MPH
  PRES   - MEAN SEA LEVEL PRESSURE IN INCHES OF HG
  WCI    - WIND CHILL INDEX
  VSB    - VISIBILITY IN MILES
  HX     - HEAT INDEX
  TC     - TEMPERATURE IN CELSIUS
  VRB    - VARIABLE WIND DIRECTION
  N/A    - NOT AVAILABLE
  
      

Other recent Regional Weather Roundups

Fri Jun 9, 7:10pm EDT

Fri Jun 9, 6:10pm EDT

Fri Jun 9, 5:10pm EDT

Fri Jun 9, 4:10pm EDT

Fri Jun 9, 3:10pm EDT

Fri Jun 9, 2:10pm EDT

Fri Jun 9, 1:10pm EDT

Fri Jun 9, 12:10pm EDT

Fri Jun 9, 11:10am EDT

Fri Jun 9, 10:10am EDT

Fri Jun 9, 9:10am EDT

Fri Jun 9, 8:10am EDT

Fri Jun 9, 7:10am EDT

Fri Jun 9, 6:10am EDT

Fri Jun 9, 5:10am EDT

Fri Jun 9, 4:10am EDT

Fri Jun 9, 3:10am EDT

Fri Jun 9, 2:10am EDT

Fri Jun 9, 1:10am EDT

Fri Jun 9, 12:10am EDT

Thu Jun 8, 10:10pm EDT

Thu Jun 8, 9:10pm EDT

Thu Jun 8, 8:10pm EDT

Thu Jun 8, 7:10pm EDT

Thu Jun 8, 6:10pm EDT

Thu Jun 8, 5:10pm EDT

Thu Jun 8, 4:10pm EDT

Thu Jun 8, 3:10pm EDT

Thu Jun 8, 2:10pm EDT

Thu Jun 8, 1:10pm EDT

Thu Jun 8, 12:10pm EDT

Thu Jun 8, 11:10am EDT

Thu Jun 8, 10:10am EDT

Thu Jun 8, 9:10am EDT

Thu Jun 8, 8:10am EDT

Thu Jun 8, 7:10am EDT

Thu Jun 8, 6:10am EDT

Thu Jun 8, 5:10am EDT

Thu Jun 8, 4:10am EDT

Thu Jun 8, 3:10am EDT

Thu Jun 8, 2:10am EDT

Thu Jun 8, 1:10am EDT

Thu Jun 8, 12:10am EDT

Wed Jun 7, 11:10pm EDT

Wed Jun 7, 10:10pm EDT

Wed Jun 7, 9:10pm EDT

Wed Jun 7, 8:10pm EDT

Wed Jun 7, 7:10pm EDT

Wed Jun 7, 6:10pm EDT

Wed Jun 7, 5:10pm EDT

Wed Jun 7, 4:10pm EDT

Wed Jun 7, 3:10pm EDT

Wed Jun 7, 2:10pm EDT

Wed Jun 7, 1:10pm EDT

Wed Jun 7, 12:10pm EDT

Wed Jun 7, 11:10am EDT

Wed Jun 7, 10:10am EDT

Wed Jun 7, 9:10am EDT

Wed Jun 7, 8:10am EDT

Wed Jun 7, 7:10am EDT

Wed Jun 7, 6:10am EDT

Wed Jun 7, 5:10am EDT

Wed Jun 7, 4:10am EDT

Wed Jun 7, 3:10am EDT

Wed Jun 7, 2:10am EDT

Wed Jun 7, 1:10am EDT

Wed Jun 7, 12:10am EDT

Tue Jun 6, 11:10pm EDT

Tue Jun 6, 10:10pm EDT

Tue Jun 6, 9:10pm EDT

Tue Jun 6, 8:10pm EDT

Tue Jun 6, 7:10pm EDT

Tue Jun 6, 6:10pm EDT

Tue Jun 6, 5:10pm EDT

Tue Jun 6, 4:10pm EDT

Tue Jun 6, 3:10pm EDT

Tue Jun 6, 2:10pm EDT

Tue Jun 6, 1:10pm EDT

Tue Jun 6, 12:10pm EDT

Tue Jun 6, 11:10am EDT

Tue Jun 6, 10:10am EDT

Tue Jun 6, 9:10am EDT

Tue Jun 6, 8:10am EDT

Tue Jun 6, 7:10am EDT

Tue Jun 6, 6:10am EDT

Tue Jun 6, 5:10am EDT

Tue Jun 6, 4:10am EDT

Tue Jun 6, 3:10am EDT

Tue Jun 6, 2:10am EDT

Tue Jun 6, 1:10am EDT

Tue Jun 6, 12:10am EDT

Mon Jun 5, 11:10pm EDT

Mon Jun 5, 10:10pm EDT

Mon Jun 5, 9:10pm EDT

Mon Jun 5, 8:10pm EDT

Mon Jun 5, 7:10pm EDT

Mon Jun 5, 6:10pm EDT

Mon Jun 5, 5:10pm EDT

Mon Jun 5, 4:10pm EDT

Mon Jun 5, 3:10pm EDT

Mon Jun 5, 2:10pm EDT

Mon Jun 5, 1:10pm EDT

Mon Jun 5, 12:10pm EDT

Mon Jun 5, 11:10am EDT

Mon Jun 5, 10:10am EDT

Mon Jun 5, 9:10am EDT

Mon Jun 5, 8:10am EDT

Mon Jun 5, 7:10am EDT

Mon Jun 5, 6:10am EDT

Mon Jun 5, 5:10am EDT

Mon Jun 5, 4:10am EDT

Mon Jun 5, 3:10am EDT

Mon Jun 5, 2:10am EDT

Mon Jun 5, 1:10am EDT

Mon Jun 5, 12:10am EDT

Sun Jun 4, 11:10pm EDT

Sun Jun 4, 10:10pm EDT

Sun Jun 4, 9:10pm EDT

Sun Jun 4, 8:10pm EDT

Sun Jun 4, 7:10pm EDT

Sun Jun 4, 6:10pm EDT

Sun Jun 4, 5:10pm EDT

Sun Jun 4, 4:10pm EDT

Sun Jun 4, 3:10pm EDT

Sun Jun 4, 2:10pm EDT

Sun Jun 4, 1:10pm EDT

Sun Jun 4, 12:10pm EDT

Sun Jun 4, 11:10am EDT

Sun Jun 4, 10:10am EDT

Sun Jun 4, 9:10am EDT

Sun Jun 4, 8:10am EDT

Sun Jun 4, 7:10am EDT

Sun Jun 4, 6:10am EDT

Sun Jun 4, 5:10am EDT

Sun Jun 4, 4:10am EDT

Sun Jun 4, 3:10am EDT

Sun Jun 4, 2:10am EDT

Sun Jun 4, 1:10am EDT

Sun Jun 4, 12:10am EDT

Sat Jun 3, 11:10pm EDT

Sat Jun 3, 10:10pm EDT

Sat Jun 3, 9:10pm EDT

Sat Jun 3, 8:10pm EDT

Sat Jun 3, 7:10pm EDT

Sat Jun 3, 6:10pm EDT

Sat Jun 3, 5:10pm EDT

Sat Jun 3, 4:10pm EDT

Sat Jun 3, 3:10pm EDT

Sat Jun 3, 2:10pm EDT

Sat Jun 3, 1:10pm EDT

Sat Jun 3, 12:10pm EDT

Sat Jun 3, 11:10am EDT

Sat Jun 3, 10:10am EDT

Sat Jun 3, 9:10am EDT

Sat Jun 3, 8:10am EDT

Sat Jun 3, 7:10am EDT

Sat Jun 3, 6:10am EDT

Sat Jun 3, 5:10am EDT

Sat Jun 3, 4:10am EDT

Sat Jun 3, 3:10am EDT

Sat Jun 3, 2:10am EDT

Sat Jun 3, 1:10am EDT

Sat Jun 3, 12:10am EDT

Fri Jun 2, 11:10pm EDT

Fri Jun 2, 10:10pm EDT

Fri Jun 2, 9:10pm EDT

Fri Jun 2, 8:10pm EDT